Location: Ladirat
(44.8151°N, 1.9702°E)
Time: 20:57:24
(UTC+00:00)

Cosmos 2369 - Pass Details

Date: 15 May 2026
Orbit: 836 x 856 km, 71.0° (Epoch: 7 June)

Event Time Altitude Azimuth Distance (km) Brightness Sun altitude
Rises 20:43:05 0° 329° (NNW) 3,430 8.6 -13.5°
Reaches altitude 10° 20:45:37 10° 324° (NW) 2,492 7.6 -13.8°
Maximum altitude 20:51:05 48° 252° (WSW) 1,109 4.5 -14.5°
Enters shadow 20:56:06 12° 181° (S) 2,325 5.6 -15.1°
